sat.trackr.live / text

‹ back to catalog

KUIPER-00213

NORAD 67777 · 2026-030P

PAYLOAD ACTIVE UNKNOWN

§ Identity

Operator
Country
US
Launch date
2026-02-12
Launch site
FRGUI
Launch vehicle
Mass (kg)
RCS (m²)

External: N2YO · Heavens-Above · Gunter

§ Orbital elements

Epoch: 2026-05-25T04:06:33.559200Z

Period
97.30 min
Inclination
51.8957°
Eccentricity
0.0001090
Mean motion
14.79918957 rev/d
Perigee alt
628.8 km
Apogee alt
630.3 km
Semi-major
7,007.7 km
B*
4.0120e-4
RAAN
227.5009°
Arg perigee
61.5523°
Mean anomaly
298.5549°
Rev number
1,660

§ Raw data

KUIPER-002131 67777U 26030P   26145.17122175  .00002838  00000+0  40120-3 0  99992 67777  51.8957 227.5009 0001090  61.5523 298.5549 14.79918957 16603

JSON: /api/v1/satellites/67777 · /tle

For live sub-satellite position, see the globe view (requires WebGL).

§ Visibility from observer

Set your observer location to see the next 7 days of passes ≥ 10°. The values pass through the URL so the page stays shareable.

No JS? Fill the form by hand. The geolocation button needs JavaScript.